Regional Weather Roundup
Issued by NWS

Home | Current Version | Previous Version | Text Only | Print | Product List | Glossary On
Versions: 1 2 3 4 5 6 7 8 9 10 11 12 13 14 15 16 17 18 19 20 21 22 23 24 25 26 27 28 29 30 31 32 33 34 35 36 37 38 39 40 41 42 43 44 45 46 47 48 49 50
000
ASUS44 KJAN 042303
RWRMS

MISSISSIPPI HOURLY WEATHER ROUNDUP
NATIONAL WEATHER SERVICE JACKSON MS
600 PM CDT WED MAY 04 2016

NOTE: "FAIR: INDICATES FEW OR NO CLOUDS BELOW 12,000 FEET WITH NO
SIGNIFICANT WEATHER AND/OR OBSTRUCTIONS TO VISIBILITY.

MSZ001>002-007>008-010>013-018>021-025>028-034>036-050000-
NORTHWEST MISSISSIPPI

CITY           SKY/WX    TMP DP  RH WIND       PRES   REMARKS
BATESVILLE     FAIR      74  54  48 CALM      29.78S
CLEVELAND      MOCLDY    78  54  43 W14G25    29.78F
GREENWOOD      SUNNY     77  49  37 W8G20     29.78F
GREENVILLE     MOSUNNY   77  53  43 W12       29.80F
OLIVE BRANCH   MOSUNNY   73  43  33 MISG      29.77R
OXFORD         FAIR      68  55  64 NW8       29.79R
TUNICA         CLEAR     73  43  33 NW18G26   29.79R
WINONA         MOCLDY    74  52  45 W7        29.78F
$$

MSZ003>006-009-014>017-022>024-029>033-037>039-050000-
NORTHEAST MISSISSIPPI

CITY           SKY/WX    TMP DP  RH WIND       PRES   REMARKS
COLUMBUS AFB   MOSUNNY   74  56  52 W12       29.73F
CORINTH        FAIR      70  54  56 NW8       29.74S
GOLDN TRIANGLE PTSUNNY   75  48  38 W12G21    29.75F
STARKVILLE     FAIR      75  48  38 W10G17    29.75F
TUPELO         CLOUDY    63  53  70 W7        29.75F
$$

MSZ040-058-050000-
CENTRAL MISSISSIPPI

CITY           SKY/WX    TMP DP  RH WIND       PRES   REMARKS
JACKSON INTL   MOSUNNY   77  48  35 NW10G22   29.83S
JACKSON HAWKNS MOSUNNY   75  47  36 W15       29.84S
MADISON        FAIR      73  50  43 W8G17     29.83S
MERIDIAN KEY   MOSUNNY   73  47  39 W10       29.81S
MERIDIAN NAS   MOSUNNY   74  47  38 W15       29.80S
VICKSBURG TVR  SUNNY     79  49  34 NW12G18   29.84S
VICKSBURG VKS  CLEAR     79  48  34 NW9G16    29.84F
$$

MSZ059>079-050000-
SOUTH MISSISSIPPI

CITY           SKY/WX    TMP DP  RH WIND       PRES   REMARKS
BROOKHAVEN     FAIR     N/A N/A N/A NW10      29.86F
COLUMBIA       FAIR      75  48  38 NW10      29.88F
HATTIESBURG    MOSUNNY   76  46  34 NW14G23   29.84S
MCCOMB         SUNNY     76  48  37 NW12      29.86F
NATCHEZ        SUNNY     77  48  36 W12       29.86F
PINE BELT      SUNNY     75  48  38 W7        29.85F
$$

MSZ080>082-050000-
COASTAL MISSISSIPPI

CITY           SKY/WX    TMP DP  RH WIND       PRES   REMARKS
BILOXI         SUNNY     76  47  34 NW10      29.82F
PASCAGOULA     SUNNY     76  47  35 VRB7      29.82S
GULFPORT       SUNNY     77  47  34 NW14      29.83S
$$




USA.gov is the U.S. government's official web portal to all federal, state and local government web resources and services.